When you browse on this site, cookies collect data to enhance your experience and personalize the content and advertising you see.
Visit our Privacy Policy to learn more. By continuing to use the site, you agree to this use of cookies and data.
  • In United Kingdom
  • List of Countries
  • For 7 days
  • Water Temperature
  • Satellite Maps
  • Weather Map
  • Weather Widgets
  • user-avatar
    Login

    Hourly Weather Banbridge

    Today, 25 April, Thursday

    Time Temperature Precipitation Wind Pressure Humidity
    00:00 +7°C° 0 mm 4 mps 736 mmHg 95%
    01:00 +7°C° 0 mm 4 mps 736 mmHg 95%
    02:00 +7°C° 0 mm 3 mps 736 mmHg 95%
    03:00 +7°C° 0 mm 3 mps 736 mmHg 95%
    04:00 +7°C° 0 mm 3 mps 737 mmHg 96%
    05:00 +7°C° 0 mm 3 mps 737 mmHg 96%
    06:00 +7°C° 0 mm 2 mps 737 mmHg 97%
    07:00 +8°C° 0.1 mm 3 mps 737 mmHg 93%
    08:00 +8°C° 0.1 mm 4 mps 738 mmHg 89%
    09:00 +11°C° 0.1 mm 4 mps 738 mmHg 85%
    10:00 +10°C° 0.1 mm 5 mps 738 mmHg 84%
    11:00 +10°C° 0.1 mm 5 mps 738 mmHg 84%
    12:00 +10°C° 0.1 mm 6 mps 737 mmHg 84%
    13:00 +10°C° 0.2 mm 6 mps 738 mmHg 83%
    14:00 +10°C° 0.2 mm 6 mps 738 mmHg 82%
    15:00 +12°C° 0.2 mm 5 mps 738 mmHg 81%
    16:00 +12°C° 0.1 mm 5 mps 738 mmHg 80%
    17:00 +10°C° 0.1 mm 5 mps 738 mmHg 80%
    18:00 +10°C° 0.1 mm 5 mps 738 mmHg 80%
    19:00 +8°C° 0 mm 5 mps 738 mmHg 84%
    20:00 +7°C° 0 mm 4 mps 739 mmHg 89%
    21:00 +7°C° 0 mm 3 mps 739 mmHg 94%
    22:00 +7°C° 0 mm 3 mps 739 mmHg 95%
    23:00 +5°C° 0 mm 3 mps 739 mmHg 96%

    Tomorrow, 26 April, Friday

    Time Temperature Precipitation Wind Pressure Humidity
    00:00 +6°C° 0 mm 2 mps 739 mmHg 97%
    01:00 +6°C° 0 mm 2 mps 739 mmHg 97%
    02:00 +6°C° 0 mm 2 mps 739 mmHg 97%
    03:00 +6°C° 0 mm 2 mps 739 mmHg 98%
    04:00 +7°C° 0 mm 2 mps 739 mmHg 97%
    05:00 +7°C° 0 mm 2 mps 739 mmHg 97%
    06:00 +8°C° 0 mm 2 mps 740 mmHg 97%
    07:00 +8°C° 0.1 mm 2 mps 740 mmHg 95%
    08:00 +9°C° 0.1 mm 2 mps 740 mmHg 93%
    09:00 +9°C° 0.1 mm 3 mps 741 mmHg 91%
    10:00 +8°C° 0.2 mm 4 mps 741 mmHg 90%
    11:00 +8°C° 0.2 mm 6 mps 742 mmHg 89%
    12:00 +8°C° 0.2 mm 7 mps 742 mmHg 88%
    13:00 +8°C° 0 mm 7 mps 742 mmHg 81%
    14:00 +9°C° 0 mm 6 mps 742 mmHg 75%
    15:00 +9°C° 0 mm 6 mps 742 mmHg 69%
    16:00 +8°C° 0.4 mm 6 mps 741 mmHg 77%
    17:00 +7°C° 0.4 mm 6 mps 740 mmHg 85%
    18:00 +7°C° 0.4 mm 6 mps 739 mmHg 93%
    19:00 +6°C° 0.2 mm 5 mps 738 mmHg 93%
    20:00 +5°C° 0.2 mm 4 mps 737 mmHg 92%
    21:00 +5°C° 0.2 mm 4 mps 736 mmHg 91%
    22:00 +5°C° 0.7 mm 4 mps 736 mmHg 93%
    23:00 +5°C° 0.7 mm 4 mps 737 mmHg 94%

    Day after tomorrow, 27 April, Saturday

    Time Temperature Precipitation Wind Pressure Humidity
    00:00 +5°C° 0.7 mm 4 mps 737 mmHg 95%
    01:00 +5°C° 0.3 mm 5 mps 738 mmHg 95%
    02:00 +4°C° 0.3 mm 6 mps 739 mmHg 95%
    03:00 +4°C° 0.3 mm 7 mps 740 mmHg 95%
    04:00 +4°C° 2.2 mm 7 mps 741 mmHg 95%
    05:00 +4°C° 2.2 mm 8 mps 743 mmHg 95%
    06:00 +3°C° 2.2 mm 9 mps 744 mmHg 94%
    07:00 +3°C° 1.6 mm 9 mps 745 mmHg 93%
    08:00 +3°C° 1.6 mm 10 mps 747 mmHg 91%
    09:00 +3°C° 1.6 mm 10 mps 748 mmHg 90%
    10:00 +5°C° 0.1 mm 10 mps 749 mmHg 83%
    11:00 +4°C° 0.1 mm 11 mps 750 mmHg 77%
    12:00 +6°C° 0.1 mm 11 mps 751 mmHg 71%
    13:00 +7°C° 0 mm 10 mps 751 mmHg 68%
    14:00 +7°C° 0 mm 10 mps 752 mmHg 65%
    15:00 +7°C° 0 mm 9 mps 753 mmHg 62%
    16:00 +7°C° 0 mm 8 mps 754 mmHg 63%
    17:00 +6°C° 0 mm 7 mps 754 mmHg 64%
    18:00 +6°C° 0 mm 7 mps 755 mmHg 66%
    19:00 +5°C° 0 mm 6 mps 756 mmHg 67%
    20:00 +5°C° 0 mm 5 mps 757 mmHg 68%
    21:00 +4°C° 0 mm 4 mps 757 mmHg 69%
    22:00 +3°C° 0 mm 4 mps 758 mmHg 74%
    23:00 +2°C° 0 mm 3 mps 758 mmHg 78%

    28 April, Sunday

    Time Temperature Precipitation Wind Pressure Humidity
    00:00 +2°C° 0 mm 3 mps 758 mmHg 83%
    01:00 +2°C° 0 mm 3 mps 758 mmHg 83%
    02:00 +3°C° 0 mm 2 mps 758 mmHg 83%
    03:00 +3°C° 0 mm 2 mps 759 mmHg 83%
    04:00 +3°C° 0 mm 2 mps 759 mmHg 84%
    05:00 +5°C° 0 mm 1 mps 759 mmHg 84%
    06:00 +5°C° 0 mm 1 mps 759 mmHg 85%
    07:00 +6°C° 0.1 mm 1 mps 759 mmHg 83%
    08:00 +7°C° 0.1 mm 1 mps 759 mmHg 82%
    09:00 +7°C° 0.1 mm 2 mps 760 mmHg 80%
    10:00 +8°C° 0 mm 2 mps 760 mmHg 79%
    11:00 +9°C° 0 mm 2 mps 760 mmHg 79%
    12:00 +10°C° 0 mm 2 mps 760 mmHg 78%
    13:00 +12°C° 0 mm 2 mps 760 mmHg 79%
    14:00 +12°C° 0 mm 2 mps 760 mmHg 80%
    15:00 +11°C° 0 mm 3 mps 760 mmHg 81%
    16:00 +11°C° 0 mm 3 mps 760 mmHg 82%
    17:00 +11°C° 0 mm 3 mps 759 mmHg 83%
    18:00 +10°C° 0 mm 3 mps 759 mmHg 85%
    19:00 +9°C° 0 mm 3 mps 759 mmHg 88%
    20:00 +8°C° 0 mm 2 mps 760 mmHg 91%
    21:00 +7°C° 0 mm 2 mps 760 mmHg 94%
    22:00 +7°C° 0.3 mm 2 mps 760 mmHg 94%
    23:00 +7°C° 0.3 mm 3 mps 760 mmHg 95%

    29 April, Monday

    Time Temperature Precipitation Wind Pressure Humidity
    00:00 +7°C° 0.3 mm 3 mps 760 mmHg 96%
    01:00 +7°C° 0.9 mm 3 mps 759 mmHg 96%
    02:00 +7°C° 0.9 mm 3 mps 759 mmHg 97%
    03:00 +6°C° 0.9 mm 4 mps 759 mmHg 97%
    04:00 +6°C° 1.6 mm 4 mps 759 mmHg 97%
    05:00 +6°C° 1.6 mm 4 mps 759 mmHg 97%
    06:00 +6°C° 1.6 mm 4 mps 760 mmHg 97%
    07:00 +6°C° 0.4 mm 4 mps 760 mmHg 96%
    08:00 +7°C° 0.4 mm 4 mps 760 mmHg 95%
    09:00 +8°C° 0.4 mm 4 mps 760 mmHg 94%
    10:00 +8°C° 0 mm 4 mps 760 mmHg 91%
    11:00 +10°C° 0 mm 4 mps 760 mmHg 89%
    12:00 +10°C° 0 mm 5 mps 760 mmHg 86%
    13:00 +10°C° 0 mm 5 mps 760 mmHg 84%
    14:00 +12°C° 0 mm 5 mps 760 mmHg 82%
    15:00 +12°C° 0 mm 5 mps 760 mmHg 80%
    16:00 +12°C° 0 mm 5 mps 760 mmHg 81%
    17:00 +12°C° 0 mm 4 mps 760 mmHg 82%
    18:00 +12°C° 0 mm 4 mps 760 mmHg 82%
    19:00 +10°C° 0 mm 4 mps 761 mmHg 87%
    20:00 +9°C° 0 mm 3 mps 761 mmHg 91%
    21:00 +7°C° 0 mm 3 mps 761 mmHg 95%
    22:00 +7°C° 0 mm 2 mps 761 mmHg 94%
    23:00 +7°C° 0 mm 2 mps 761 mmHg 94%

    30 April, Tuesday

    Time Temperature Precipitation Wind Pressure Humidity
    00:00 +7°C° 0 mm 2 mps 761 mmHg 93%
    01:00 +6°C° 0 mm 2 mps 761 mmHg 92%
    02:00 +6°C° 0 mm 2 mps 761 mmHg 92%
    03:00 +7°C° 0 mm 1 mps 761 mmHg 91%
    04:00 +8°C° 0 mm 1 mps 761 mmHg 91%
    05:00 +8°C° 0 mm 1 mps 761 mmHg 92%
    06:00 +8°C° 0 mm 1 mps 761 mmHg 92%
    07:00 +9°C° 0 mm 2 mps 761 mmHg 87%
    08:00 +12°C° 0 mm 2 mps 762 mmHg 82%
    09:00 +14°C° 0 mm 2 mps 762 mmHg 77%
    10:00 +13°C° 0 mm 3 mps 761 mmHg 75%
    11:00 +14°C° 0 mm 3 mps 761 mmHg 73%
    12:00 +16°C° 0 mm 3 mps 761 mmHg 70%
    13:00 +16°C° 0 mm 3 mps 761 mmHg 70%
    14:00 +16°C° 0 mm 3 mps 761 mmHg 70%
    15:00 +16°C° 0 mm 3 mps 761 mmHg 70%
    16:00 +14°C° 0 mm 3 mps 761 mmHg 73%
    17:00 +15°C° 0 mm 2 mps 761 mmHg 75%
    18:00 +14°C° 0 mm 2 mps 760 mmHg 77%
    19:00 +12°C° 0 mm 2 mps 761 mmHg 81%
    20:00 +10°C° 0 mm 2 mps 761 mmHg 84%
    21:00 +8°C° 0 mm 2 mps 761 mmHg 88%
    22:00 +8°C° 0 mm 2 mps 761 mmHg 87%
    23:00 +8°C° 0 mm 2 mps 761 mmHg 87%
    Show more